Cullman, AL

11:01 AM CDT on July 24, 2017 (GMT -0500)
Cullman

Weather History for K3A1 - February, 2013

Change the Weather History Date:

Wednesday, February 6, 2013

  Actual Average (KHSV) Record (KHSV)
Temperature  
Mean Temperature 48 °F -  
Max Temperature 64 °F 49 °F 71 °F (1931)
Min Temperature 32 °F 30 °F 10 °F (1988)
Degree Days  
Heating Degree Days 17    
Moisture  
Dew Point 36 °F    
Average Humidity 71    
Maximum Humidity 100    
Minimum Humidity 33    
Precipitation  
Precipitation 0.00 in - - ()
Sea Level Pressure  
Sea Level Pressure 30.14 in    
Wind  
Wind Speed 1 mph (East)    
Max Wind Speed 6 mph    
Max Gust Speed -    
Visibility 7 miles    
Events Fog    
Averages and records for this station are not official NWS values.
T = Trace of Precipitation, MM = Missing Value Source: NWS Daily Summary

Daily Weather History Graph

Daily Weather History Graph

Search for Another Location

Airport or City:

Trip Planner

Search our weather history database for the weather conditions in past years. The results will help you decide how hot, cold, wet, or windy it might be!

Date:

Astronomy

Feb. 06, 2013 Rise Set
Actual Time 6:40 AM CST 5:22 PM CST
Civil Twilight 6:14 AM CST 5:48 PM CST
Nautical Twilight 5:44 AM CST 6:18 PM CST
Astronomical Twilight 5:15 AM CST 6:47 PM CST
Moon 3:19 AM CST (2/6) 1:45 PM CST (2/6)
Length of Visible Light 11h 34m
Length of Day
10h 42m
Waning Crescent, 17% of the Moon is Illuminated
Feb 6
Waning Crescent
Feb 10
New
Feb 17
First Quarter
Feb 25
Full
Mar 4
Last Quarter

Hourly Weather History & Observations

Time (CST) Temp. Windchill Dew Point Humidity Pressure Visibility Wind Dir Wind Speed Gust Speed Precip Events Conditions
12:15 AM 36.3 °F - 36.3 °F 100% 30.08 in 0.2 mi Calm Calm - N/A Fog Fog
12:35 AM 36.1 °F - 36.1 °F 100% 30.08 in 0.2 mi Calm Calm - N/A Fog Fog
12:55 AM 37.0 °F - 37.0 °F 100% 30.08 in 0.2 mi Calm Calm - N/A Fog Fog
1:15 AM 36.7 °F - 36.7 °F 100% 30.09 in 0.2 mi Calm Calm - N/A Fog Fog
1:35 AM 35.8 °F - 35.8 °F 100% 30.09 in 0.2 mi Calm Calm - N/A Fog Fog
1:55 AM 35.1 °F - 35.1 °F 100% 30.09 in 0.2 mi Calm Calm - N/A Fog Fog
2:15 AM 34.3 °F - 34.3 °F 100% 30.09 in 0.5 mi Calm Calm - N/A Fog Fog
2:35 AM 33.8 °F - 33.8 °F 100% 30.09 in 0.5 mi Calm Calm - N/A Fog Fog
2:55 AM 33.4 °F - 33.4 °F 100% 30.10 in 0.2 mi Calm Calm - N/A Fog Fog
3:15 AM 33.3 °F - 33.3 °F 100% 30.11 in 0.2 mi Calm Calm - N/A Fog Fog
3:35 AM 32.9 °F - 32.9 °F 100% 30.11 in 0.2 mi Calm Calm - N/A Fog Fog
3:55 AM 32.7 °F - 32.7 °F 100% 30.11 in 0.2 mi Calm Calm - N/A Fog Fog
4:15 AM 32.5 °F - 32.5 °F 100% 30.12 in 0.5 mi Calm Calm - N/A Fog Fog
4:35 AM 32.2 °F - 32.2 °F 100% 30.13 in 0.5 mi Calm Calm - N/A Fog Fog
4:55 AM 32.0 °F 28.7 °F 32.0 °F 100% 30.13 in 1.8 mi NNE 3.5 mph - N/A   Mist
5:15 AM 32.9 °F - 32.9 °F 100% 30.14 in 0.5 mi Calm Calm - N/A Fog Fog
5:35 AM 33.1 °F - 33.1 °F 100% 30.14 in 2.0 mi Calm Calm - N/A   Clear
5:55 AM 32.5 °F - 32.5 °F 100% 30.15 in 1.8 mi Calm Calm - N/A   Mist
6:15 AM 32.4 °F - 32.4 °F 100% 30.16 in 7.0 mi Calm Calm - N/A   Clear
6:35 AM 32.7 °F - 32.7 °F 100% 30.16 in 10.0 mi Calm Calm - N/A   Clear
6:55 AM 33.3 °F - 33.3 °F 100% 30.16 in 1.8 mi Calm Calm - N/A   Mist
7:15 AM 33.4 °F - 33.4 °F 100% 30.16 in 0.2 mi Calm Calm - N/A Fog Fog
7:35 AM 34.3 °F - 34.3 °F 100% 30.17 in 0.2 mi Calm Calm - N/A Fog Fog
7:55 AM 38.5 °F - 38.5 °F 100% 30.17 in 1.8 mi Calm Calm - N/A   Mist
8:15 AM 42.3 °F - 42.1 °F 99% 30.18 in 5.0 mi Calm Calm - N/A   Clear
8:35 AM 45.1 °F - 44.1 °F 96% 30.18 in 10.0 mi Calm Calm - N/A   Clear
8:55 AM 48.9 °F - 44.6 °F 85% 30.19 in 10.0 mi ESE 4.6 mph - N/A   Clear
9:15 AM 51.4 °F - 41.9 °F 70% 30.19 in 10.0 mi East 4.6 mph - N/A   Clear
9:35 AM 52.3 °F - 40.5 °F 64% 30.19 in 10.0 mi East 5.8 mph - N/A   Clear
9:55 AM 53.1 °F - 39.4 °F 60% 30.20 in 10.0 mi East 5.8 mph - N/A   Clear
10:35 AM 56.3 °F - 37.6 °F 50% 30.20 in 10.0 mi SE 5.8 mph - N/A   Clear
10:55 AM 57.4 °F - 37.4 °F 47% 30.21 in 10.0 mi ESE 4.6 mph - N/A   Clear
11:15 AM 57.9 °F - 35.4 °F 43% 30.20 in 10.0 mi East 3.5 mph - N/A   Clear
11:35 AM 59.2 °F - 36.0 °F 42% 30.21 in 10.0 mi SSW 4.6 mph - N/A   Clear
11:55 AM 59.7 °F - 36.1 °F 41% 30.19 in 10.0 mi South 3.5 mph - N/A   Clear
12:15 PM 60.4 °F - 37.0 °F 42% 30.18 in 10.0 mi NE 3.5 mph - N/A   Clear
12:35 PM 61.7 °F - 36.5 °F 39% 30.17 in 10.0 mi ESE 4.6 mph - N/A   Clear
12:55 PM 61.9 °F - 35.2 °F 37% 30.16 in 10.0 mi East 3.5 mph - N/A   Clear
1:15 PM 62.2 °F - 35.2 °F 37% 30.16 in 10.0 mi SE 3.5 mph - N/A   Clear
1:35 PM 63.1 °F - 35.2 °F 35% 30.16 in 10.0 mi East 3.5 mph - N/A   Clear
1:55 PM 63.7 °F - 35.4 °F 35% 30.15 in 10.0 mi Calm Calm - N/A   Clear
2:15 PM 64.0 °F - 34.9 °F 34% 30.14 in 10.0 mi ENE 3.5 mph - N/A   Clear
2:35 PM 64.4 °F - 35.1 °F 34% 30.13 in 10.0 mi East 3.5 mph - N/A   Clear
2:55 PM 64.8 °F - 34.5 °F 33% 30.13 in 10.0 mi Calm Calm - N/A   Clear
3:15 PM 63.1 °F - 34.7 °F 35% 30.13 in 10.0 mi ESE 3.5 mph - N/A   Clear
3:35 PM 62.8 °F - 35.4 °F 36% 30.13 in 10.0 mi ESE 3.5 mph - N/A   Clear
3:55 PM 62.4 °F - 34.7 °F 36% 30.13 in 10.0 mi Calm Calm - N/A   Clear
4:15 PM 62.2 °F - 34.7 °F 36% 30.14 in 10.0 mi Calm Calm - N/A   Clear
4:35 PM 62.1 °F - 34.5 °F 36% 30.13 in 10.0 mi Calm Calm - N/A   Clear
4:55 PM 61.3 °F - 35.2 °F 38% 30.12 in 10.0 mi Calm Calm - N/A   Clear
5:15 PM 59.5 °F - 36.1 °F 42% 30.12 in 10.0 mi Calm Calm - N/A   Clear
5:35 PM 53.8 °F - 38.3 °F 56% 30.12 in 10.0 mi Calm Calm - N/A   Clear
5:55 PM 50.4 °F - 37.9 °F 62% 30.13 in 7.0 mi Calm Calm - N/A   Clear
6:15 PM 48.6 °F - 37.2 °F 65% 30.13 in 10.0 mi Calm Calm - N/A   Clear
6:35 PM 47.8 °F - 36.7 °F 65% 30.13 in 10.0 mi Calm Calm - N/A   Clear
6:55 PM 46.8 °F - 36.5 °F 67% 30.13 in 4.0 mi ENE 4.6 mph - N/A   Haze
7:15 PM 45.9 °F - 36.9 °F 71% 30.13 in 10.0 mi Calm Calm - N/A   Clear
7:35 PM 46.4 °F - 37.0 °F 70% 30.13 in 10.0 mi Calm Calm - N/A   Clear
7:55 PM 46.9 °F - 37.0 °F 68% 30.13 in 10.0 mi Calm Calm - N/A   Clear
8:15 PM 47.3 °F - 37.0 °F 68% 30.15 in 10.0 mi Calm Calm - N/A   Clear
8:35 PM 46.0 °F - 37.2 °F 71% 30.15 in 10.0 mi Calm Calm - N/A   Clear
8:55 PM 45.7 °F - 38.5 °F 76% 30.14 in 10.0 mi Calm Calm - N/A   Clear
9:15 PM 44.8 °F - 38.3 °F 78% 30.12 in 10.0 mi Calm Calm - N/A   Clear
9:35 PM 44.8 °F 43.3 °F 38.1 °F 77% 30.12 in 10.0 mi ENE 3.5 mph - N/A   Clear
10:15 PM 46.6 °F - 37.8 °F 71% 30.11 in 10.0 mi ENE 3.5 mph - N/A   Clear
10:35 PM 47.3 °F - 37.2 °F 68% 30.11 in 10.0 mi Calm Calm - N/A   Clear
10:55 PM 48.9 °F - 36.3 °F 62% 30.10 in 10.0 mi ENE 3.5 mph - N/A   Clear
11:15 PM 50.9 °F - 36.0 °F 57% 30.09 in 10.0 mi ENE 4.6 mph - N/A   Clear
11:35 PM 50.9 °F - 35.8 °F 56% 30.09 in 10.0 mi ENE 3.5 mph - N/A   Clear